Weather History for Venice, Italy

Change the Weather History Date:

Monday, October 21, 2013

  Actual Average Record
Temperature  
Mean Temperature 62 °F -  
Max Temperature 66 °F 57 °F 71 °F (2014)
Min Temperature 57 °F 43 °F 37 °F (2007)
Degree Days  
Heating Degree Days 4    
Growing Degree Days 12 (Base 50)    
Moisture  
Dew Point 58 °F    
Average Humidity 91    
Maximum Humidity 100    
Minimum Humidity 77    
Precipitation  
Precipitation 0.00 in 0.11 in - ()
Sea Level Pressure  
Sea Level Pressure 30.20 in    
Wind  
Wind Speed 2 mph ()    
Max Wind Speed 6 mph    
Max Gust Speed -    
Visibility 2.8 miles    
Events Thunderstorm    
Averages and records for this station are not official NWS values.
T = Trace of Precipitation, MM = Missing Value Source: Averaged Metar Reports

Daily Weather History Graph

Daily Weather History Graph

Search for Another Location

Airport:

Trip Planner

Search our weather history database for the weather conditions in past years. The results will help you decide how hot, cold, wet, or windy it might be!

Date:

Astronomy

Oct. 21, 2013 Rise Set
Actual Time 7:34 AM CEST 6:14 PM CEST
Civil Twilight 7:04 AM CEST 6:44 PM CEST
Nautical Twilight 6:30 AM CEST 7:19 PM CEST
Astronomical Twilight 5:55 AM CEST 7:53 PM CEST
Moon 7:47 PM CEST (10/21) 10:00 AM CEST (10/21)
Length of Visible Light 11h 40m
Length of Day
10h 39m
Waning Gibbous, 94% of the Moon is Illuminated
Oct 21
Waning Gibbous
Oct 27
Last Quarter
Nov 3
New
Nov 10
First Quarter
Nov 17
Full

Hourly Weather History & Observations

Time (CEST) Temp. Dew Point Humidity Pressure Visibility Wind Dir Wind Speed Gust Speed Precip Events Conditions
12:20 AM 59.0 °F 57.2 °F 94% 30.18 in 1.2 mi NNE 4.6 mph - N/A Thunderstorm Mostly Cloudy
12:50 AM 59.0 °F 57.2 °F 94% 30.18 in 1.2 mi Variable 3.5 mph - N/A   Mostly Cloudy
1:20 AM 57.2 °F 55.4 °F 94% 30.21 in 1.2 mi Variable 3.5 mph - N/A   Mostly Cloudy
1:50 AM 57.2 °F 55.4 °F 94% 30.21 in 1.6 mi Variable 2.3 mph - N/A   Mostly Cloudy
2:20 AM 57.2 °F 57.2 °F 100% 30.21 in 1.6 mi Variable 2.3 mph - N/A   Mostly Cloudy
2:50 AM 57.2 °F 55.4 °F 94% 30.21 in 1.6 mi Variable 2.3 mph - N/A   Mostly Cloudy
3:20 AM 57.2 °F 55.4 °F 94% 30.18 in 1.6 mi Variable 1.2 mph - N/A   Mostly Cloudy
3:50 AM 57.2 °F 57.2 °F 100% 30.18 in 1.6 mi Variable 1.2 mph - N/A   Mostly Cloudy
4:20 AM 57.2 °F 55.4 °F 94% 30.18 in 1.6 mi Variable 1.2 mph - N/A   Mostly Cloudy
4:50 AM 57.2 °F 55.4 °F 94% 30.18 in 1.6 mi Variable 1.2 mph - N/A   Mostly Cloudy
5:20 AM 57.2 °F 55.4 °F 94% 30.18 in 1.2 mi Variable 2.3 mph - N/A   Mostly Cloudy
5:50 AM 57.2 °F 55.4 °F 94% 30.18 in 1.2 mi Variable 3.5 mph - N/A   Mostly Cloudy
6:20 AM 57.2 °F 57.2 °F 100% 30.18 in 1.2 mi Calm Calm - N/A   Mostly Cloudy
6:50 AM 57.2 °F 57.2 °F 100% 30.18 in 1.2 mi Variable 1.2 mph - N/A   Mostly Cloudy
7:20 AM 57.2 °F 57.2 °F 100% 30.18 in 0.9 mi Variable 3.5 mph - N/A   Mostly Cloudy
7:50 AM 57.2 °F 57.2 °F 100% 30.18 in 0.6 mi North 5.8 mph - N/A   Mostly Cloudy
8:20 AM 57.2 °F 57.2 °F 100% 30.21 in 0.9 mi Variable 3.5 mph - N/A   Mostly Cloudy
8:50 AM 59.0 °F 57.2 °F 94% 30.21 in 0.9 mi North 4.6 mph - N/A   Mostly Cloudy
9:20 AM 59.0 °F 57.2 °F 94% 30.21 in 1.6 mi Variable 2.3 mph - N/A   Mostly Cloudy
9:50 AM 59.0 °F 57.2 °F 94% 30.21 in 1.6 mi Variable 2.3 mph - N/A   Mostly Cloudy
10:20 AM 59.0 °F 57.2 °F 94% 30.21 in 1.9 mi Variable 1.2 mph - N/A   Mostly Cloudy
10:50 AM 60.8 °F 57.2 °F 88% 30.24 in 2.5 mi Variable 1.2 mph - N/A   Mostly Cloudy
11:20 AM 60.8 °F 59.0 °F 94% 30.21 in 2.5 mi North 4.6 mph - N/A   Mostly Cloudy
11:50 AM 60.8 °F 59.0 °F 94% 30.24 in 3.1 mi Variable 1.2 mph - N/A   Scattered Clouds
12:20 PM 62.6 °F 59.0 °F 88% 30.24 in 3.1 mi Variable 2.3 mph - N/A   Scattered Clouds
12:50 PM 62.6 °F 59.0 °F 88% 30.21 in 3.7 mi Variable 1.2 mph - N/A   Scattered Clouds
1:20 PM 64.4 °F 60.8 °F 88% 30.21 in 4.3 mi Variable 1.2 mph - N/A   Scattered Clouds
1:50 PM 64.4 °F 59.0 °F 83% 30.21 in 4.3 mi Variable 1.2 mph - N/A   Scattered Clouds
2:20 PM 66.2 °F 59.0 °F 78% 30.21 in 4.3 mi Variable 2.3 mph - N/A   Scattered Clouds
2:50 PM 64.4 °F 57.2 °F 77% 30.18 in 5.0 mi Variable 3.5 mph - N/A   Scattered Clouds
3:20 PM 64.4 °F 59.0 °F 83% 30.18 in 6.2 mi Calm Calm - N/A   Scattered Clouds
3:50 PM 64.4 °F 59.0 °F 83% 30.18 in 5.6 mi Variable 2.3 mph - N/A   Scattered Clouds
4:20 PM 64.4 °F 59.0 °F 83% 30.18 in 5.6 mi Calm Calm - N/A   Scattered Clouds
4:50 PM 64.4 °F 57.2 °F 77% 30.18 in 5.6 mi Variable 2.3 mph - N/A   Scattered Clouds
5:20 PM 62.6 °F 57.2 °F 82% 30.21 in 5.6 mi Variable 2.3 mph - N/A   Scattered Clouds
5:50 PM 64.4 °F 57.2 °F 77% 30.18 in 5.0 mi Variable 2.3 mph - N/A   Scattered Clouds
6:50 PM 62.6 °F 60.8 °F 94% 30.18 in 5.6 mi Variable 1.2 mph - N/A   Mostly Cloudy
7:20 PM 62.6 °F 59.0 °F 88% 30.21 in 5.0 mi Variable 1.2 mph - N/A   Mostly Cloudy
7:50 PM 62.6 °F 59.0 °F 88% 30.21 in 4.3 mi Variable 2.3 mph - N/A   Mostly Cloudy
8:20 PM 62.6 °F 59.0 °F 88% 30.18 in 4.3 mi Variable 1.2 mph - N/A   Mostly Cloudy
8:50 PM 60.8 °F 59.0 °F 94% 30.21 in 3.1 mi Variable 2.3 mph - N/A   Mostly Cloudy
9:20 PM 60.8 °F 59.0 °F 94% 30.21 in 3.1 mi Variable 3.5 mph - N/A   Mostly Cloudy
9:50 PM 60.8 °F 59.0 °F 94% 30.21 in 2.8 mi Variable 3.5 mph - N/A   Mostly Cloudy
10:20 PM 60.8 °F 59.0 °F 94% 30.21 in 2.5 mi Variable 1.2 mph - N/A   Mostly Cloudy
10:50 PM 60.8 °F 59.0 °F 94% 30.21 in 2.5 mi Variable 1.2 mph - N/A   Mostly Cloudy
11:20 PM 60.8 °F 59.0 °F 94% 30.21 in 2.5 mi Calm Calm - N/A   Mostly Cloudy
11:50 PM 60.8 °F 59.0 °F 94% 30.21 in 1.9 mi Calm Calm - N/A   Mostly Cloudy